Index of /20260507/WXO-DD/model_rdps/10km/06/073
Name Last modified Size Description
Parent Directory -
20260507T06Z_MSC_RDPS_AbsoluteVorticity_IsbL-0250_RLatLon0.09_PT073H.grib2 2026-05-07 09:02 606K
20260507T06Z_MSC_RDPS_AbsoluteVorticity_IsbL-0500_RLatLon0.09_PT073H.grib2 2026-05-07 09:02 571K
20260507T06Z_MSC_RDPS_AbsoluteVorticity_IsbL-0700_RLatLon0.09_PT073H.grib2 2026-05-07 09:02 620K
20260507T06Z_MSC_RDPS_AbsoluteVorticity_IsbL-0850_RLatLon0.09_PT073H.grib2 2026-05-07 09:02 782K
20260507T06Z_MSC_RDPS_AirTemp_AGL-120m_RLatLon0.09_PT073H.grib2 2026-05-07 09:02 375K
20260507T06Z_MSC_RDPS_AirTemp_AGL-2m_RLatLon0.09_PT073H.grib2 2026-05-07 09:02 620K
20260507T06Z_MSC_RDPS_AirTemp_AGL-40m_RLatLon0.09_PT073H.grib2 2026-05-07 09:02 390K
20260507T06Z_MSC_RDPS_AirTemp_AGL-80m_RLatLon0.09_PT073H.grib2 2026-05-07 09:02 382K
20260507T06Z_MSC_RDPS_AirTemp_IsbL-0001_RLatLon0.09_PT073H.grib2 2026-05-07 09:02 229K
20260507T06Z_MSC_RDPS_AirTemp_IsbL-0005_RLatLon0.09_PT073H.grib2 2026-05-07 09:02 376K
20260507T06Z_MSC_RDPS_AirTemp_IsbL-0010_RLatLon0.09_PT073H.grib2 2026-05-07 09:02 298K
20260507T06Z_MSC_RDPS_AirTemp_IsbL-0020_RLatLon0.09_PT073H.grib2 2026-05-07 09:02 315K
20260507T06Z_MSC_RDPS_AirTemp_IsbL-0030_RLatLon0.09_PT073H.grib2 2026-05-07 09:02 331K
20260507T06Z_MSC_RDPS_AirTemp_IsbL-0050_RLatLon0.09_PT073H.grib2 2026-05-07 09:02 307K
20260507T06Z_MSC_RDPS_AirTemp_IsbL-0100_RLatLon0.09_PT073H.grib2 2026-05-07 09:02 428K
20260507T06Z_MSC_RDPS_AirTemp_IsbL-0150_RLatLon0.09_PT073H.grib2 2026-05-07 09:02 412K
20260507T06Z_MSC_RDPS_AirTemp_IsbL-0175_RLatLon0.09_PT073H.grib2 2026-05-07 09:02 406K
20260507T06Z_MSC_RDPS_AirTemp_IsbL-0200_RLatLon0.09_PT073H.grib2 2026-05-07 09:02 408K
20260507T06Z_MSC_RDPS_AirTemp_IsbL-0225_RLatLon0.09_PT073H.grib2 2026-05-07 09:02 411K
20260507T06Z_MSC_RDPS_AirTemp_IsbL-0250_RLatLon0.09_PT073H.grib2 2026-05-07 09:02 424K
20260507T06Z_MSC_RDPS_AirTemp_IsbL-0275_RLatLon0.09_PT073H.grib2 2026-05-07 09:02 405K
20260507T06Z_MSC_RDPS_AirTemp_IsbL-0300_RLatLon0.09_PT073H.grib2 2026-05-07 09:02 434K
20260507T06Z_MSC_RDPS_AirTemp_IsbL-0350_RLatLon0.09_PT073H.grib2 2026-05-07 09:02 422K
20260507T06Z_MSC_RDPS_AirTemp_IsbL-0400_RLatLon0.09_PT073H.grib2 2026-05-07 09:02 427K
20260507T06Z_MSC_RDPS_AirTemp_IsbL-0450_RLatLon0.09_PT073H.grib2 2026-05-07 09:02 435K
20260507T06Z_MSC_RDPS_AirTemp_IsbL-0500_RLatLon0.09_PT073H.grib2 2026-05-07 09:02 445K
20260507T06Z_MSC_RDPS_AirTemp_IsbL-0550_RLatLon0.09_PT073H.grib2 2026-05-07 09:02 462K
20260507T06Z_MSC_RDPS_AirTemp_IsbL-0600_RLatLon0.09_PT073H.grib2 2026-05-07 09:02 479K
20260507T06Z_MSC_RDPS_AirTemp_IsbL-0650_RLatLon0.09_PT073H.grib2 2026-05-07 09:02 494K
20260507T06Z_MSC_RDPS_AirTemp_IsbL-0700_RLatLon0.09_PT073H.grib2 2026-05-07 09:02 518K
20260507T06Z_MSC_RDPS_AirTemp_IsbL-0750_RLatLon0.09_PT073H.grib2 2026-05-07 09:02 520K
20260507T06Z_MSC_RDPS_AirTemp_IsbL-0800_RLatLon0.09_PT073H.grib2 2026-05-07 09:02 579K
20260507T06Z_MSC_RDPS_AirTemp_IsbL-0850_RLatLon0.09_PT073H.grib2 2026-05-07 09:02 506K
20260507T06Z_MSC_RDPS_AirTemp_IsbL-0875_RLatLon0.09_PT073H.grib2 2026-05-07 09:02 522K
20260507T06Z_MSC_RDPS_AirTemp_IsbL-0900_RLatLon0.09_PT073H.grib2 2026-05-07 09:02 527K
20260507T06Z_MSC_RDPS_AirTemp_IsbL-0925_RLatLon0.09_PT073H.grib2 2026-05-07 09:02 525K
20260507T06Z_MSC_RDPS_AirTemp_IsbL-0950_RLatLon0.09_PT073H.grib2 2026-05-07 09:02 524K
20260507T06Z_MSC_RDPS_AirTemp_IsbL-0970_RLatLon0.09_PT073H.grib2 2026-05-07 09:02 519K
20260507T06Z_MSC_RDPS_AirTemp_IsbL-0985_RLatLon0.09_PT073H.grib2 2026-05-07 09:02 504K
20260507T06Z_MSC_RDPS_AirTemp_IsbL-1000_RLatLon0.09_PT073H.grib2 2026-05-07 09:02 489K
20260507T06Z_MSC_RDPS_AirTemp_IsbL-1015_RLatLon0.09_PT073H.grib2 2026-05-07 09:02 492K
20260507T06Z_MSC_RDPS_Albedo_Sfc_RLatLon0.09_PT073H.grib2 2026-05-07 09:02 158K
20260507T06Z_MSC_RDPS_CAPE_Sfc_RLatLon0.09_PT073H.grib2 2026-05-07 09:02 1.7M
20260507T06Z_MSC_RDPS_CIN_Sfc_RLatLon0.09_PT073H.grib2 2026-05-07 09:02 1.2M
20260507T06Z_MSC_RDPS_CloudWater_EAtm_RLatLon0.09_PT073H.grib2 2026-05-07 09:02 226K
20260507T06Z_MSC_RDPS_ConvectivePrecip-Accum_Sfc_RLatLon0.09_PT073H.grib2 2026-05-07 09:02 1.3M
20260507T06Z_MSC_RDPS_DewPointDepression_AGL-2m_RLatLon0.09_PT073H.grib2 2026-05-07 09:02 395K
20260507T06Z_MSC_RDPS_DewPointDepression_IsbL-0001_RLatLon0.09_PT073H.grib2 2026-05-07 09:02 193
20260507T06Z_MSC_RDPS_DewPointDepression_IsbL-0005_RLatLon0.09_PT073H.grib2 2026-05-07 09:02 193
20260507T06Z_MSC_RDPS_DewPointDepression_IsbL-0010_RLatLon0.09_PT073H.grib2 2026-05-07 09:02 193
20260507T06Z_MSC_RDPS_DewPointDepression_IsbL-0020_RLatLon0.09_PT073H.grib2 2026-05-07 09:02 193
20260507T06Z_MSC_RDPS_DewPointDepression_IsbL-0030_RLatLon0.09_PT073H.grib2 2026-05-07 09:02 1.4K
20260507T06Z_MSC_RDPS_DewPointDepression_IsbL-0050_RLatLon0.09_PT073H.grib2 2026-05-07 09:02 107K
20260507T06Z_MSC_RDPS_DewPointDepression_IsbL-0100_RLatLon0.09_PT073H.grib2 2026-05-07 09:02 108K
20260507T06Z_MSC_RDPS_DewPointDepression_IsbL-0150_RLatLon0.09_PT073H.grib2 2026-05-07 09:02 142K
20260507T06Z_MSC_RDPS_DewPointDepression_IsbL-0175_RLatLon0.09_PT073H.grib2 2026-05-07 09:02 168K
20260507T06Z_MSC_RDPS_DewPointDepression_IsbL-0200_RLatLon0.09_PT073H.grib2 2026-05-07 09:02 213K
20260507T06Z_MSC_RDPS_DewPointDepression_IsbL-0225_RLatLon0.09_PT073H.grib2 2026-05-07 09:02 264K
20260507T06Z_MSC_RDPS_DewPointDepression_IsbL-0250_RLatLon0.09_PT073H.grib2 2026-05-07 09:02 306K
20260507T06Z_MSC_RDPS_DewPointDepression_IsbL-0275_RLatLon0.09_PT073H.grib2 2026-05-07 09:02 313K
20260507T06Z_MSC_RDPS_DewPointDepression_IsbL-0300_RLatLon0.09_PT073H.grib2 2026-05-07 09:02 328K
20260507T06Z_MSC_RDPS_DewPointDepression_IsbL-0350_RLatLon0.09_PT073H.grib2 2026-05-07 09:02 330K
20260507T06Z_MSC_RDPS_DewPointDepression_IsbL-0400_RLatLon0.09_PT073H.grib2 2026-05-07 09:02 337K
20260507T06Z_MSC_RDPS_DewPointDepression_IsbL-0450_RLatLon0.09_PT073H.grib2 2026-05-07 09:02 344K
20260507T06Z_MSC_RDPS_DewPointDepression_IsbL-0500_RLatLon0.09_PT073H.grib2 2026-05-07 09:02 348K
20260507T06Z_MSC_RDPS_DewPointDepression_IsbL-0550_RLatLon0.09_PT073H.grib2 2026-05-07 09:02 356K
20260507T06Z_MSC_RDPS_DewPointDepression_IsbL-0600_RLatLon0.09_PT073H.grib2 2026-05-07 09:02 369K
20260507T06Z_MSC_RDPS_DewPointDepression_IsbL-0650_RLatLon0.09_PT073H.grib2 2026-05-07 09:02 380K
20260507T06Z_MSC_RDPS_DewPointDepression_IsbL-0700_RLatLon0.09_PT073H.grib2 2026-05-07 09:02 389K
20260507T06Z_MSC_RDPS_DewPointDepression_IsbL-0750_RLatLon0.09_PT073H.grib2 2026-05-07 09:02 407K
20260507T06Z_MSC_RDPS_DewPointDepression_IsbL-0800_RLatLon0.09_PT073H.grib2 2026-05-07 09:02 447K
20260507T06Z_MSC_RDPS_DewPointDepression_IsbL-0850_RLatLon0.09_PT073H.grib2 2026-05-07 09:02 471K
20260507T06Z_MSC_RDPS_DewPointDepression_IsbL-0875_RLatLon0.09_PT073H.grib2 2026-05-07 09:02 466K
20260507T06Z_MSC_RDPS_DewPointDepression_IsbL-0900_RLatLon0.09_PT073H.grib2 2026-05-07 09:02 455K
20260507T06Z_MSC_RDPS_DewPointDepression_IsbL-0925_RLatLon0.09_PT073H.grib2 2026-05-07 09:02 442K
20260507T06Z_MSC_RDPS_DewPointDepression_IsbL-0950_RLatLon0.09_PT073H.grib2 2026-05-07 09:02 436K
20260507T06Z_MSC_RDPS_DewPointDepression_IsbL-0970_RLatLon0.09_PT073H.grib2 2026-05-07 09:02 429K
20260507T06Z_MSC_RDPS_DewPointDepression_IsbL-0985_RLatLon0.09_PT073H.grib2 2026-05-07 09:02 424K
20260507T06Z_MSC_RDPS_DewPointDepression_IsbL-1000_RLatLon0.09_PT073H.grib2 2026-05-07 09:02 419K
20260507T06Z_MSC_RDPS_DewPointDepression_IsbL-1015_RLatLon0.09_PT073H.grib2 2026-05-07 09:02 409K
20260507T06Z_MSC_RDPS_DewPoint_AGL-2m_RLatLon0.09_PT073H.grib2 2026-05-07 09:02 388K
20260507T06Z_MSC_RDPS_DownwardLongwaveRadiationFlux-Accum_Sfc_RLatLon0.09_PT073H.grib2 2026-05-07 09:02 428K
20260507T06Z_MSC_RDPS_DownwardShortwaveRadiationFlux-Accum_NTAtm_RLatLon0.09_PT073H.grib2 2026-05-07 09:02 130K
20260507T06Z_MSC_RDPS_DownwardShortwaveRadiationFlux-Accum_Sfc_RLatLon0.09_PT073H.grib2 2026-05-07 09:02 631K
20260507T06Z_MSC_RDPS_FreezingRain-Accum1h_Sfc_RLatLon0.09_PT073H.grib2 2026-05-07 09:02 50K
20260507T06Z_MSC_RDPS_FreezingRain-Accum_Sfc_RLatLon0.09_PT073H.grib2 2026-05-07 09:02 194K
20260507T06Z_MSC_RDPS_GeopotentialHeight_IsbL-0001_RLatLon0.09_PT073H.grib2 2026-05-07 09:02 313K
20260507T06Z_MSC_RDPS_GeopotentialHeight_IsbL-0005_RLatLon0.09_PT073H.grib2 2026-05-07 09:02 305K
20260507T06Z_MSC_RDPS_GeopotentialHeight_IsbL-0010_RLatLon0.09_PT073H.grib2 2026-05-07 09:02 306K
20260507T06Z_MSC_RDPS_GeopotentialHeight_IsbL-0020_RLatLon0.09_PT073H.grib2 2026-05-07 09:02 305K
20260507T06Z_MSC_RDPS_GeopotentialHeight_IsbL-0030_RLatLon0.09_PT073H.grib2 2026-05-07 09:02 403K
20260507T06Z_MSC_RDPS_GeopotentialHeight_IsbL-0050_RLatLon0.09_PT073H.grib2 2026-05-07 09:02 308K
20260507T06Z_MSC_RDPS_GeopotentialHeight_IsbL-0100_RLatLon0.09_PT073H.grib2 2026-05-07 09:02 285K
20260507T06Z_MSC_RDPS_GeopotentialHeight_IsbL-0150_RLatLon0.09_PT073H.grib2 2026-05-07 09:02 227K
20260507T06Z_MSC_RDPS_GeopotentialHeight_IsbL-0175_RLatLon0.09_PT073H.grib2 2026-05-07 09:02 229K
20260507T06Z_MSC_RDPS_GeopotentialHeight_IsbL-0200_RLatLon0.09_PT073H.grib2 2026-05-07 09:02 231K
20260507T06Z_MSC_RDPS_GeopotentialHeight_IsbL-0225_RLatLon0.09_PT073H.grib2 2026-05-07 09:02 264K
20260507T06Z_MSC_RDPS_GeopotentialHeight_IsbL-0250_RLatLon0.09_PT073H.grib2 2026-05-07 09:02 266K
20260507T06Z_MSC_RDPS_GeopotentialHeight_IsbL-0275_RLatLon0.09_PT073H.grib2 2026-05-07 09:02 265K
20260507T06Z_MSC_RDPS_GeopotentialHeight_IsbL-0300_RLatLon0.09_PT073H.grib2 2026-05-07 09:02 236K
20260507T06Z_MSC_RDPS_GeopotentialHeight_IsbL-0350_RLatLon0.09_PT073H.grib2 2026-05-07 09:02 232K
20260507T06Z_MSC_RDPS_GeopotentialHeight_IsbL-0400_RLatLon0.09_PT073H.grib2 2026-05-07 09:02 227K
20260507T06Z_MSC_RDPS_GeopotentialHeight_IsbL-0450_RLatLon0.09_PT073H.grib2 2026-05-07 09:02 296K
20260507T06Z_MSC_RDPS_GeopotentialHeight_IsbL-0500_RLatLon0.09_PT073H.grib2 2026-05-07 09:02 290K
20260507T06Z_MSC_RDPS_GeopotentialHeight_IsbL-0550_RLatLon0.09_PT073H.grib2 2026-05-07 09:02 286K
20260507T06Z_MSC_RDPS_GeopotentialHeight_IsbL-0600_RLatLon0.09_PT073H.grib2 2026-05-07 09:02 283K
20260507T06Z_MSC_RDPS_GeopotentialHeight_IsbL-0650_RLatLon0.09_PT073H.grib2 2026-05-07 09:02 253K
20260507T06Z_MSC_RDPS_GeopotentialHeight_IsbL-0700_RLatLon0.09_PT073H.grib2 2026-05-07 09:02 252K
20260507T06Z_MSC_RDPS_GeopotentialHeight_IsbL-0750_RLatLon0.09_PT073H.grib2 2026-05-07 09:02 337K
20260507T06Z_MSC_RDPS_GeopotentialHeight_IsbL-0800_RLatLon0.09_PT073H.grib2 2026-05-07 09:02 346K
20260507T06Z_MSC_RDPS_GeopotentialHeight_IsbL-0850_RLatLon0.09_PT073H.grib2 2026-05-07 09:02 357K
20260507T06Z_MSC_RDPS_GeopotentialHeight_IsbL-0875_RLatLon0.09_PT073H.grib2 2026-05-07 09:02 358K
20260507T06Z_MSC_RDPS_GeopotentialHeight_IsbL-0900_RLatLon0.09_PT073H.grib2 2026-05-07 09:02 363K
20260507T06Z_MSC_RDPS_GeopotentialHeight_IsbL-0925_RLatLon0.09_PT073H.grib2 2026-05-07 09:02 367K
20260507T06Z_MSC_RDPS_GeopotentialHeight_IsbL-0950_RLatLon0.09_PT073H.grib2 2026-05-07 09:02 369K
20260507T06Z_MSC_RDPS_GeopotentialHeight_IsbL-0970_RLatLon0.09_PT073H.grib2 2026-05-07 09:02 374K
20260507T06Z_MSC_RDPS_GeopotentialHeight_IsbL-0985_RLatLon0.09_PT073H.grib2 2026-05-07 09:02 382K
20260507T06Z_MSC_RDPS_GeopotentialHeight_IsbL-1000_RLatLon0.09_PT073H.grib2 2026-05-07 09:02 394K
20260507T06Z_MSC_RDPS_GeopotentialHeight_IsbL-1015_RLatLon0.09_PT073H.grib2 2026-05-07 09:02 409K
20260507T06Z_MSC_RDPS_HighLowPressure_MSL_RLatLon0.09_PT073H.json 2026-05-07 08:54 20K
20260507T06Z_MSC_RDPS_Humidex_Sfc_RLatLon0.09_PT073H.grib2 2026-05-07 09:02 2.4M
20260507T06Z_MSC_RDPS_IcePellets-Accum1h_Sfc_RLatLon0.09_PT073H.grib2 2026-05-07 09:02 7.7K
20260507T06Z_MSC_RDPS_IcePellets-Accum_Sfc_RLatLon0.09_PT073H.grib2 2026-05-07 09:02 27K
20260507T06Z_MSC_RDPS_KIndex_Sfc_RLatLon0.09_PT073H.grib2 2026-05-07 09:02 2.5M
20260507T06Z_MSC_RDPS_LatentHeatNetFlux_Sfc_RLatLon0.09_PT073H.grib2 2026-05-07 09:02 320K
20260507T06Z_MSC_RDPS_LiftedIndex-MU-VT_IsbL-0500_RLatLon0.09_PT073H.grib2 2026-05-07 09:02 2.4M
20260507T06Z_MSC_RDPS_NetLongwaveRadiationFlux-Accum_Sfc_RLatLon0.09_PT073H.grib2 2026-05-07 09:02 477K
20260507T06Z_MSC_RDPS_NetShortwaveRadiationFlux-Accum_Sfc_RLatLon0.09_PT073H.grib2 2026-05-07 09:02 634K
20260507T06Z_MSC_RDPS_PlanetaryBoundaryLayerHeight_Sfc_RLatLon0.09_PT073H.grib2 2026-05-07 09:02 1.1M
20260507T06Z_MSC_RDPS_Precip-Accum1h_Sfc_RLatLon0.09_PT073H.grib2 2026-05-07 09:02 1.2M
20260507T06Z_MSC_RDPS_Precip-Accum_Sfc_RLatLon0.09_PT073H.grib2 2026-05-07 09:02 2.1M
20260507T06Z_MSC_RDPS_PrecipRate_Sfc_RLatLon0.09_PT073H.grib2 2026-05-07 09:02 181K
20260507T06Z_MSC_RDPS_PrecipType-Instant_Sfc_RLatLon0.09_PT073H.grib2 2026-05-07 09:02 592K
20260507T06Z_MSC_RDPS_Pressure-Trend3h_Sfc_RLatLon0.09_PT073H.grib2 2026-05-07 09:02 1.2M
20260507T06Z_MSC_RDPS_Pressure_MSL_RLatLon0.09_PT073H.grib2 2026-05-07 09:02 324K
20260507T06Z_MSC_RDPS_Pressure_PVU-1.5_RLatLon0.09_PT073H.grib2 2026-05-07 09:02 2.5M
20260507T06Z_MSC_RDPS_Pressure_PVU-1_RLatLon0.09_PT073H.grib2 2026-05-07 09:02 2.4M
20260507T06Z_MSC_RDPS_Pressure_PVU-2_RLatLon0.09_PT073H.grib2 2026-05-07 09:02 2.4M
20260507T06Z_MSC_RDPS_Pressure_Sfc_RLatLon0.09_PT073H.grib2 2026-05-07 09:02 498K
20260507T06Z_MSC_RDPS_RadiativeTemp_Sfc_RLatLon0.09_PT073H.grib2 2026-05-07 09:02 388K
20260507T06Z_MSC_RDPS_Rain-Accum1h_Sfc_RLatLon0.09_PT073H.grib2 2026-05-07 09:02 567K
20260507T06Z_MSC_RDPS_Rain-Accum_Sfc_RLatLon0.09_PT073H.grib2 2026-05-07 09:02 1.8M
20260507T06Z_MSC_RDPS_RelativeHumidity_AGL-2m_RLatLon0.09_PT073H.grib2 2026-05-07 09:02 1.0M
20260507T06Z_MSC_RDPS_RelativeHumidity_IsbL-0010_RLatLon0.09_PT073H.grib2 2026-05-07 09:02 581K
20260507T06Z_MSC_RDPS_RelativeHumidity_IsbL-0020_RLatLon0.09_PT073H.grib2 2026-05-07 09:02 531K
20260507T06Z_MSC_RDPS_RelativeHumidity_IsbL-0030_RLatLon0.09_PT073H.grib2 2026-05-07 09:02 626K
20260507T06Z_MSC_RDPS_RelativeHumidity_IsbL-0050_RLatLon0.09_PT073H.grib2 2026-05-07 09:02 353K
20260507T06Z_MSC_RDPS_RelativeHumidity_IsbL-0100_RLatLon0.09_PT073H.grib2 2026-05-07 09:02 273K
20260507T06Z_MSC_RDPS_RelativeHumidity_IsbL-0150_RLatLon0.09_PT073H.grib2 2026-05-07 09:02 408K
20260507T06Z_MSC_RDPS_RelativeHumidity_IsbL-0175_RLatLon0.09_PT073H.grib2 2026-05-07 09:02 464K
20260507T06Z_MSC_RDPS_RelativeHumidity_IsbL-0200_RLatLon0.09_PT073H.grib2 2026-05-07 09:02 535K
20260507T06Z_MSC_RDPS_RelativeHumidity_IsbL-0225_RLatLon0.09_PT073H.grib2 2026-05-07 09:02 613K
20260507T06Z_MSC_RDPS_RelativeHumidity_IsbL-0250_RLatLon0.09_PT073H.grib2 2026-05-07 09:02 696K
20260507T06Z_MSC_RDPS_RelativeHumidity_IsbL-0275_RLatLon0.09_PT073H.grib2 2026-05-07 09:02 726K
20260507T06Z_MSC_RDPS_RelativeHumidity_IsbL-0300_RLatLon0.09_PT073H.grib2 2026-05-07 09:02 764K
20260507T06Z_MSC_RDPS_RelativeHumidity_IsbL-0350_RLatLon0.09_PT073H.grib2 2026-05-07 09:02 776K
20260507T06Z_MSC_RDPS_RelativeHumidity_IsbL-0400_RLatLon0.09_PT073H.grib2 2026-05-07 09:02 792K
20260507T06Z_MSC_RDPS_RelativeHumidity_IsbL-0450_RLatLon0.09_PT073H.grib2 2026-05-07 09:02 801K
20260507T06Z_MSC_RDPS_RelativeHumidity_IsbL-0500_RLatLon0.09_PT073H.grib2 2026-05-07 09:02 804K
20260507T06Z_MSC_RDPS_RelativeHumidity_IsbL-0550_RLatLon0.09_PT073H.grib2 2026-05-07 09:02 815K
20260507T06Z_MSC_RDPS_RelativeHumidity_IsbL-0600_RLatLon0.09_PT073H.grib2 2026-05-07 09:02 836K
20260507T06Z_MSC_RDPS_RelativeHumidity_IsbL-0650_RLatLon0.09_PT073H.grib2 2026-05-07 09:02 850K
20260507T06Z_MSC_RDPS_RelativeHumidity_IsbL-0700_RLatLon0.09_PT073H.grib2 2026-05-07 09:02 881K
20260507T06Z_MSC_RDPS_RelativeHumidity_IsbL-0750_RLatLon0.09_PT073H.grib2 2026-05-07 09:02 922K
20260507T06Z_MSC_RDPS_RelativeHumidity_IsbL-0800_RLatLon0.09_PT073H.grib2 2026-05-07 09:02 1.0M
20260507T06Z_MSC_RDPS_RelativeHumidity_IsbL-0850_RLatLon0.09_PT073H.grib2 2026-05-07 09:02 1.0M
20260507T06Z_MSC_RDPS_RelativeHumidity_IsbL-0875_RLatLon0.09_PT073H.grib2 2026-05-07 09:02 1.0M
20260507T06Z_MSC_RDPS_RelativeHumidity_IsbL-0900_RLatLon0.09_PT073H.grib2 2026-05-07 09:02 1.1M
20260507T06Z_MSC_RDPS_RelativeHumidity_IsbL-0925_RLatLon0.09_PT073H.grib2 2026-05-07 09:02 1.1M
20260507T06Z_MSC_RDPS_RelativeHumidity_IsbL-0950_RLatLon0.09_PT073H.grib2 2026-05-07 09:02 1.0M
20260507T06Z_MSC_RDPS_RelativeHumidity_IsbL-0970_RLatLon0.09_PT073H.grib2 2026-05-07 09:02 1.0M
20260507T06Z_MSC_RDPS_RelativeHumidity_IsbL-0985_RLatLon0.09_PT073H.grib2 2026-05-07 09:02 1.0M
20260507T06Z_MSC_RDPS_RelativeHumidity_IsbL-1000_RLatLon0.09_PT073H.grib2 2026-05-07 09:02 1.0M
20260507T06Z_MSC_RDPS_RelativeHumidity_IsbL-1015_RLatLon0.09_PT073H.grib2 2026-05-07 09:02 1.0M
20260507T06Z_MSC_RDPS_Runoff-Accum_Sfc_RLatLon0.09_PT073H.grib2 2026-05-07 09:02 47K
20260507T06Z_MSC_RDPS_SWEATIndex_Sfc_RLatLon0.09_PT073H.grib2 2026-05-07 09:02 2.4M
20260507T06Z_MSC_RDPS_SeeingIndex_EAtm_RLatLon0.09_PT073H.grib2 2026-05-07 09:02 1.0M
20260507T06Z_MSC_RDPS_SensibleHeatNetFlux_Sfc_RLatLon0.09_PT073H.grib2 2026-05-07 09:02 292K
20260507T06Z_MSC_RDPS_ShowalterIndex_IsbL-0500_RLatLon0.09_PT073H.grib2 2026-05-07 09:02 2.6M
20260507T06Z_MSC_RDPS_SkyTransparencyIndex_EAtm_RLatLon0.09_PT073H.grib2 2026-05-07 09:02 699K
20260507T06Z_MSC_RDPS_Snow-Accum1h_Sfc_RLatLon0.09_PT073H.grib2 2026-05-07 09:02 347K
20260507T06Z_MSC_RDPS_Snow-Accum_Sfc_RLatLon0.09_PT073H.grib2 2026-05-07 09:02 684K
20260507T06Z_MSC_RDPS_SnowDensity_Sfc_RLatLon0.09_PT073H.grib2 2026-05-07 09:02 173K
20260507T06Z_MSC_RDPS_SnowDepth_Sfc_RLatLon0.09_PT073H.grib2 2026-05-07 09:02 624K
20260507T06Z_MSC_RDPS_SoilTemp_DBS-0to10cm_RLatLon0.09_PT073H.grib2 2026-05-07 09:02 243K
20260507T06Z_MSC_RDPS_SoilTemp_Sfc_RLatLon0.09_PT073H.grib2 2026-05-07 09:02 265K
20260507T06Z_MSC_RDPS_SoilVolumetricIceContent_Sfc_RLatLon0.09_PT073H.grib2 2026-05-07 09:02 143K
20260507T06Z_MSC_RDPS_SoilVolumetricWaterContent_DBS-0to10cm_RLatLon0.09_PT073H.grib2 2026-05-07 09:02 292K
20260507T06Z_MSC_RDPS_SoilVolumetricWaterContent_DBS-0to1cm_RLatLon0.09_PT073H.grib2 2026-05-07 09:02 342K
20260507T06Z_MSC_RDPS_SpecificHumidity_AGL-120m_RLatLon0.09_PT073H.grib2 2026-05-07 09:02 495K
20260507T06Z_MSC_RDPS_SpecificHumidity_AGL-2m_RLatLon0.09_PT073H.grib2 2026-05-07 09:02 664K
20260507T06Z_MSC_RDPS_SpecificHumidity_AGL-40m_RLatLon0.09_PT073H.grib2 2026-05-07 09:02 500K
20260507T06Z_MSC_RDPS_SpecificHumidity_AGL-80m_RLatLon0.09_PT073H.grib2 2026-05-07 09:02 496K
20260507T06Z_MSC_RDPS_SpecificHumidity_IsbL-0001_RLatLon0.09_PT073H.grib2 2026-05-07 09:02 355K
20260507T06Z_MSC_RDPS_SpecificHumidity_IsbL-0005_RLatLon0.09_PT073H.grib2 2026-05-07 09:02 365K
20260507T06Z_MSC_RDPS_SpecificHumidity_IsbL-0010_RLatLon0.09_PT073H.grib2 2026-05-07 09:02 392K
20260507T06Z_MSC_RDPS_SpecificHumidity_IsbL-0020_RLatLon0.09_PT073H.grib2 2026-05-07 09:02 484K
20260507T06Z_MSC_RDPS_SpecificHumidity_IsbL-0030_RLatLon0.09_PT073H.grib2 2026-05-07 09:02 366K
20260507T06Z_MSC_RDPS_SpecificHumidity_IsbL-0050_RLatLon0.09_PT073H.grib2 2026-05-07 09:02 363K
20260507T06Z_MSC_RDPS_SpecificHumidity_IsbL-0100_RLatLon0.09_PT073H.grib2 2026-05-07 09:02 403K
20260507T06Z_MSC_RDPS_SpecificHumidity_IsbL-0150_RLatLon0.09_PT073H.grib2 2026-05-07 09:02 472K
20260507T06Z_MSC_RDPS_SpecificHumidity_IsbL-0175_RLatLon0.09_PT073H.grib2 2026-05-07 09:02 427K
20260507T06Z_MSC_RDPS_SpecificHumidity_IsbL-0200_RLatLon0.09_PT073H.grib2 2026-05-07 09:02 463K
20260507T06Z_MSC_RDPS_SpecificHumidity_IsbL-0225_RLatLon0.09_PT073H.grib2 2026-05-07 09:02 455K
20260507T06Z_MSC_RDPS_SpecificHumidity_IsbL-0250_RLatLon0.09_PT073H.grib2 2026-05-07 09:02 567K
20260507T06Z_MSC_RDPS_SpecificHumidity_IsbL-0275_RLatLon0.09_PT073H.grib2 2026-05-07 09:02 484K
20260507T06Z_MSC_RDPS_SpecificHumidity_IsbL-0300_RLatLon0.09_PT073H.grib2 2026-05-07 09:02 580K
20260507T06Z_MSC_RDPS_SpecificHumidity_IsbL-0350_RLatLon0.09_PT073H.grib2 2026-05-07 09:02 571K
20260507T06Z_MSC_RDPS_SpecificHumidity_IsbL-0400_RLatLon0.09_PT073H.grib2 2026-05-07 09:02 529K
20260507T06Z_MSC_RDPS_SpecificHumidity_IsbL-0450_RLatLon0.09_PT073H.grib2 2026-05-07 09:02 583K
20260507T06Z_MSC_RDPS_SpecificHumidity_IsbL-0500_RLatLon0.09_PT073H.grib2 2026-05-07 09:02 519K
20260507T06Z_MSC_RDPS_SpecificHumidity_IsbL-0550_RLatLon0.09_PT073H.grib2 2026-05-07 09:02 587K
20260507T06Z_MSC_RDPS_SpecificHumidity_IsbL-0600_RLatLon0.09_PT073H.grib2 2026-05-07 09:02 641K
20260507T06Z_MSC_RDPS_SpecificHumidity_IsbL-0650_RLatLon0.09_PT073H.grib2 2026-05-07 09:02 561K
20260507T06Z_MSC_RDPS_SpecificHumidity_IsbL-0700_RLatLon0.09_PT073H.grib2 2026-05-07 09:02 606K
20260507T06Z_MSC_RDPS_SpecificHumidity_IsbL-0750_RLatLon0.09_PT073H.grib2 2026-05-07 09:02 663K
20260507T06Z_MSC_RDPS_SpecificHumidity_IsbL-0800_RLatLon0.09_PT073H.grib2 2026-05-07 09:02 753K
20260507T06Z_MSC_RDPS_SpecificHumidity_IsbL-0850_RLatLon0.09_PT073H.grib2 2026-05-07 09:02 819K
20260507T06Z_MSC_RDPS_SpecificHumidity_IsbL-0875_RLatLon0.09_PT073H.grib2 2026-05-07 09:02 837K
20260507T06Z_MSC_RDPS_SpecificHumidity_IsbL-0900_RLatLon0.09_PT073H.grib2 2026-05-07 09:02 847K
20260507T06Z_MSC_RDPS_SpecificHumidity_IsbL-0925_RLatLon0.09_PT073H.grib2 2026-05-07 09:02 848K
20260507T06Z_MSC_RDPS_SpecificHumidity_IsbL-0950_RLatLon0.09_PT073H.grib2 2026-05-07 09:02 706K
20260507T06Z_MSC_RDPS_SpecificHumidity_IsbL-0970_RLatLon0.09_PT073H.grib2 2026-05-07 09:02 701K
20260507T06Z_MSC_RDPS_SpecificHumidity_IsbL-0985_RLatLon0.09_PT073H.grib2 2026-05-07 09:02 693K
20260507T06Z_MSC_RDPS_SpecificHumidity_IsbL-1000_RLatLon0.09_PT073H.grib2 2026-05-07 09:02 686K
20260507T06Z_MSC_RDPS_SpecificHumidity_IsbL-1015_RLatLon0.09_PT073H.grib2 2026-05-07 09:02 679K
20260507T06Z_MSC_RDPS_SpecificHumidity_Sfc_RLatLon0.09_PT073H.grib2 2026-05-07 09:02 306K
20260507T06Z_MSC_RDPS_StormRelativeHelicity_EtaL-10000_RLatLon0.09_PT073H.grib2 2026-05-07 09:02 1.1M
20260507T06Z_MSC_RDPS_StormSeverityIndex_EtaL-10000_RLatLon0.09_PT073H.grib2 2026-05-07 09:02 1.2M
20260507T06Z_MSC_RDPS_Thickness_IsbL-0850to0700_RLatLon0.09_PT073H.grib2 2026-05-07 09:02 249K
20260507T06Z_MSC_RDPS_Thickness_IsbL-1000to0500_RLatLon0.09_PT073H.grib2 2026-05-07 09:02 196K
20260507T06Z_MSC_RDPS_Thickness_IsbL-1000to0850_RLatLon0.09_PT073H.grib2 2026-05-07 09:02 260K
20260507T06Z_MSC_RDPS_TotalCloudCover_Sfc_RLatLon0.09_PT073H.grib2 2026-05-07 09:02 671K
20260507T06Z_MSC_RDPS_TotalTotalsIndex_Sfc_RLatLon0.09_PT073H.grib2 2026-05-07 09:02 2.5M
20260507T06Z_MSC_RDPS_UVIndex-ClearSky_Sfc_RLatLon0.09_PT073H.grib2 2026-05-07 09:02 101K
20260507T06Z_MSC_RDPS_UVIndex_Sfc_RLatLon0.09_PT073H.grib2 2026-05-07 09:02 181K
20260507T06Z_MSC_RDPS_UpwardLongwaveRadiationFlux_NTAtm_RLatLon0.09_PT073H.grib2 2026-05-07 09:02 490K
20260507T06Z_MSC_RDPS_UpwardShortwaveRadiationFlux_NTAtm_RLatLon0.09_PT073H.grib2 2026-05-07 09:02 150K
20260507T06Z_MSC_RDPS_VerticalVelocity_IsbL-0250_RLatLon0.09_PT073H.grib2 2026-05-07 09:02 545K
20260507T06Z_MSC_RDPS_VerticalVelocity_IsbL-0500_RLatLon0.09_PT073H.grib2 2026-05-07 09:02 539K
20260507T06Z_MSC_RDPS_VerticalVelocity_IsbL-0700_RLatLon0.09_PT073H.grib2 2026-05-07 09:02 592K
20260507T06Z_MSC_RDPS_VerticalVelocity_IsbL-0850_RLatLon0.09_PT073H.grib2 2026-05-07 09:02 695K
20260507T06Z_MSC_RDPS_VerticalWindShear_EtaL-6500_RLatLon0.09_PT073H.grib2 2026-05-07 09:02 1.2M
20260507T06Z_MSC_RDPS_WindChill_Sfc_RLatLon0.09_PT073H.grib2 2026-05-07 09:02 1.2M
20260507T06Z_MSC_RDPS_WindDir_AGL-10m_RLatLon0.09_PT073H.grib2 2026-05-07 09:02 964K
20260507T06Z_MSC_RDPS_WindDir_AGL-120m_RLatLon0.09_PT073H.grib2 2026-05-07 09:02 598K
20260507T06Z_MSC_RDPS_WindDir_AGL-40m_RLatLon0.09_PT073H.grib2 2026-05-07 09:02 632K
20260507T06Z_MSC_RDPS_WindDir_AGL-80m_RLatLon0.09_PT073H.grib2 2026-05-07 09:02 611K
20260507T06Z_MSC_RDPS_WindDir_IsbL-0001_RLatLon0.09_PT073H.grib2 2026-05-07 09:02 287K
20260507T06Z_MSC_RDPS_WindDir_IsbL-0005_RLatLon0.09_PT073H.grib2 2026-05-07 09:02 365K
20260507T06Z_MSC_RDPS_WindDir_IsbL-0010_RLatLon0.09_PT073H.grib2 2026-05-07 09:02 387K
20260507T06Z_MSC_RDPS_WindDir_IsbL-0020_RLatLon0.09_PT073H.grib2 2026-05-07 09:02 419K
20260507T06Z_MSC_RDPS_WindDir_IsbL-0030_RLatLon0.09_PT073H.grib2 2026-05-07 09:02 420K
20260507T06Z_MSC_RDPS_WindDir_IsbL-0050_RLatLon0.09_PT073H.grib2 2026-05-07 09:02 436K
20260507T06Z_MSC_RDPS_WindDir_IsbL-0100_RLatLon0.09_PT073H.grib2 2026-05-07 09:02 422K
20260507T06Z_MSC_RDPS_WindDir_IsbL-0150_RLatLon0.09_PT073H.grib2 2026-05-07 09:02 418K
20260507T06Z_MSC_RDPS_WindDir_IsbL-0175_RLatLon0.09_PT073H.grib2 2026-05-07 09:02 436K
20260507T06Z_MSC_RDPS_WindDir_IsbL-0200_RLatLon0.09_PT073H.grib2 2026-05-07 09:02 457K
20260507T06Z_MSC_RDPS_WindDir_IsbL-0225_RLatLon0.09_PT073H.grib2 2026-05-07 09:02 467K
20260507T06Z_MSC_RDPS_WindDir_IsbL-0250_RLatLon0.09_PT073H.grib2 2026-05-07 09:02 467K
20260507T06Z_MSC_RDPS_WindDir_IsbL-0275_RLatLon0.09_PT073H.grib2 2026-05-07 09:02 489K
20260507T06Z_MSC_RDPS_WindDir_IsbL-0300_RLatLon0.09_PT073H.grib2 2026-05-07 09:02 483K
20260507T06Z_MSC_RDPS_WindDir_IsbL-0350_RLatLon0.09_PT073H.grib2 2026-05-07 09:02 507K
20260507T06Z_MSC_RDPS_WindDir_IsbL-0400_RLatLon0.09_PT073H.grib2 2026-05-07 09:02 527K
20260507T06Z_MSC_RDPS_WindDir_IsbL-0450_RLatLon0.09_PT073H.grib2 2026-05-07 09:02 549K
20260507T06Z_MSC_RDPS_WindDir_IsbL-0500_RLatLon0.09_PT073H.grib2 2026-05-07 09:02 565K
20260507T06Z_MSC_RDPS_WindDir_IsbL-0550_RLatLon0.09_PT073H.grib2 2026-05-07 09:02 574K
20260507T06Z_MSC_RDPS_WindDir_IsbL-0600_RLatLon0.09_PT073H.grib2 2026-05-07 09:02 597K
20260507T06Z_MSC_RDPS_WindDir_IsbL-0650_RLatLon0.09_PT073H.grib2 2026-05-07 09:02 627K
20260507T06Z_MSC_RDPS_WindDir_IsbL-0700_RLatLon0.09_PT073H.grib2 2026-05-07 09:02 672K
20260507T06Z_MSC_RDPS_WindDir_IsbL-0750_RLatLon0.09_PT073H.grib2 2026-05-07 09:02 723K
20260507T06Z_MSC_RDPS_WindDir_IsbL-0800_RLatLon0.09_PT073H.grib2 2026-05-07 09:02 795K
20260507T06Z_MSC_RDPS_WindDir_IsbL-0850_RLatLon0.09_PT073H.grib2 2026-05-07 09:02 863K
20260507T06Z_MSC_RDPS_WindDir_IsbL-0875_RLatLon0.09_PT073H.grib2 2026-05-07 09:02 884K
20260507T06Z_MSC_RDPS_WindDir_IsbL-0900_RLatLon0.09_PT073H.grib2 2026-05-07 09:02 899K
20260507T06Z_MSC_RDPS_WindDir_IsbL-0925_RLatLon0.09_PT073H.grib2 2026-05-07 09:02 907K
20260507T06Z_MSC_RDPS_WindDir_IsbL-0950_RLatLon0.09_PT073H.grib2 2026-05-07 09:02 910K
20260507T06Z_MSC_RDPS_WindDir_IsbL-0970_RLatLon0.09_PT073H.grib2 2026-05-07 09:02 913K
20260507T06Z_MSC_RDPS_WindDir_IsbL-0985_RLatLon0.09_PT073H.grib2 2026-05-07 09:02 922K
20260507T06Z_MSC_RDPS_WindDir_IsbL-1000_RLatLon0.09_PT073H.grib2 2026-05-07 09:02 939K
20260507T06Z_MSC_RDPS_WindDir_IsbL-1015_RLatLon0.09_PT073H.grib2 2026-05-07 09:02 957K
20260507T06Z_MSC_RDPS_WindGust-Max_AGL-10m_RLatLon0.09_PT073H.grib2 2026-05-07 09:02 1.0M
20260507T06Z_MSC_RDPS_WindGust-Min_AGL-10m_RLatLon0.09_PT073H.grib2 2026-05-07 09:02 1.0M
20260507T06Z_MSC_RDPS_WindGust_AGL-10m_RLatLon0.09_PT073H.grib2 2026-05-07 09:02 1.0M
20260507T06Z_MSC_RDPS_WindSpeed_AGL-10m_RLatLon0.09_PT073H.grib2 2026-05-07 09:02 844K
20260507T06Z_MSC_RDPS_WindSpeed_AGL-120m_RLatLon0.09_PT073H.grib2 2026-05-07 09:02 674K
20260507T06Z_MSC_RDPS_WindSpeed_AGL-40m_RLatLon0.09_PT073H.grib2 2026-05-07 09:02 676K
20260507T06Z_MSC_RDPS_WindSpeed_AGL-80m_RLatLon0.09_PT073H.grib2 2026-05-07 09:02 674K
20260507T06Z_MSC_RDPS_WindSpeed_IsbL-0001_RLatLon0.09_PT073H.grib2 2026-05-07 09:02 252K
20260507T06Z_MSC_RDPS_WindSpeed_IsbL-0005_RLatLon0.09_PT073H.grib2 2026-05-07 09:02 382K
20260507T06Z_MSC_RDPS_WindSpeed_IsbL-0010_RLatLon0.09_PT073H.grib2 2026-05-07 09:02 396K
20260507T06Z_MSC_RDPS_WindSpeed_IsbL-0020_RLatLon0.09_PT073H.grib2 2026-05-07 09:02 322K
20260507T06Z_MSC_RDPS_WindSpeed_IsbL-0030_RLatLon0.09_PT073H.grib2 2026-05-07 09:02 318K
20260507T06Z_MSC_RDPS_WindSpeed_IsbL-0050_RLatLon0.09_PT073H.grib2 2026-05-07 09:02 446K
20260507T06Z_MSC_RDPS_WindSpeed_IsbL-0100_RLatLon0.09_PT073H.grib2 2026-05-07 09:02 475K
20260507T06Z_MSC_RDPS_WindSpeed_IsbL-0150_RLatLon0.09_PT073H.grib2 2026-05-07 09:02 375K
20260507T06Z_MSC_RDPS_WindSpeed_IsbL-0175_RLatLon0.09_PT073H.grib2 2026-05-07 09:02 402K
20260507T06Z_MSC_RDPS_WindSpeed_IsbL-0200_RLatLon0.09_PT073H.grib2 2026-05-07 09:02 435K
20260507T06Z_MSC_RDPS_WindSpeed_IsbL-0225_RLatLon0.09_PT073H.grib2 2026-05-07 09:02 443K
20260507T06Z_MSC_RDPS_WindSpeed_IsbL-0250_RLatLon0.09_PT073H.grib2 2026-05-07 09:02 449K
20260507T06Z_MSC_RDPS_WindSpeed_IsbL-0275_RLatLon0.09_PT073H.grib2 2026-05-07 09:02 468K
20260507T06Z_MSC_RDPS_WindSpeed_IsbL-0300_RLatLon0.09_PT073H.grib2 2026-05-07 09:02 465K
20260507T06Z_MSC_RDPS_WindSpeed_IsbL-0350_RLatLon0.09_PT073H.grib2 2026-05-07 09:02 473K
20260507T06Z_MSC_RDPS_WindSpeed_IsbL-0400_RLatLon0.09_PT073H.grib2 2026-05-07 09:02 480K
20260507T06Z_MSC_RDPS_WindSpeed_IsbL-0450_RLatLon0.09_PT073H.grib2 2026-05-07 09:02 466K
20260507T06Z_MSC_RDPS_WindSpeed_IsbL-0500_RLatLon0.09_PT073H.grib2 2026-05-07 09:02 466K
20260507T06Z_MSC_RDPS_WindSpeed_IsbL-0550_RLatLon0.09_PT073H.grib2 2026-05-07 09:02 584K
20260507T06Z_MSC_RDPS_WindSpeed_IsbL-0600_RLatLon0.09_PT073H.grib2 2026-05-07 09:02 592K
20260507T06Z_MSC_RDPS_WindSpeed_IsbL-0650_RLatLon0.09_PT073H.grib2 2026-05-07 09:02 609K
20260507T06Z_MSC_RDPS_WindSpeed_IsbL-0700_RLatLon0.09_PT073H.grib2 2026-05-07 09:02 635K
20260507T06Z_MSC_RDPS_WindSpeed_IsbL-0750_RLatLon0.09_PT073H.grib2 2026-05-07 09:02 666K
20260507T06Z_MSC_RDPS_WindSpeed_IsbL-0800_RLatLon0.09_PT073H.grib2 2026-05-07 09:02 762K
20260507T06Z_MSC_RDPS_WindSpeed_IsbL-0850_RLatLon0.09_PT073H.grib2 2026-05-07 09:02 819K
20260507T06Z_MSC_RDPS_WindSpeed_IsbL-0875_RLatLon0.09_PT073H.grib2 2026-05-07 09:02 830K
20260507T06Z_MSC_RDPS_WindSpeed_IsbL-0900_RLatLon0.09_PT073H.grib2 2026-05-07 09:02 849K
20260507T06Z_MSC_RDPS_WindSpeed_IsbL-0925_RLatLon0.09_PT073H.grib2 2026-05-07 09:02 862K
20260507T06Z_MSC_RDPS_WindSpeed_IsbL-0950_RLatLon0.09_PT073H.grib2 2026-05-07 09:02 866K
20260507T06Z_MSC_RDPS_WindSpeed_IsbL-0970_RLatLon0.09_PT073H.grib2 2026-05-07 09:02 864K
20260507T06Z_MSC_RDPS_WindSpeed_IsbL-0985_RLatLon0.09_PT073H.grib2 2026-05-07 09:02 858K
20260507T06Z_MSC_RDPS_WindSpeed_IsbL-1000_RLatLon0.09_PT073H.grib2 2026-05-07 09:02 852K
20260507T06Z_MSC_RDPS_WindSpeed_IsbL-1015_RLatLon0.09_PT073H.grib2 2026-05-07 09:02 844K
20260507T06Z_MSC_RDPS_WindU_AGL-10m_RLatLon0.09_PT073H.grib2 2026-05-07 09:02 432K
20260507T06Z_MSC_RDPS_WindU_AGL-120m_RLatLon0.09_PT073H.grib2 2026-05-07 09:02 537K
20260507T06Z_MSC_RDPS_WindU_AGL-40m_RLatLon0.09_PT073H.grib2 2026-05-07 09:02 541K
20260507T06Z_MSC_RDPS_WindU_AGL-80m_RLatLon0.09_PT073H.grib2 2026-05-07 09:02 539K
20260507T06Z_MSC_RDPS_WindU_IsbL-0001_RLatLon0.09_PT073H.grib2 2026-05-07 09:02 293K
20260507T06Z_MSC_RDPS_WindU_IsbL-0005_RLatLon0.09_PT073H.grib2 2026-05-07 09:02 286K
20260507T06Z_MSC_RDPS_WindU_IsbL-0010_RLatLon0.09_PT073H.grib2 2026-05-07 09:02 295K
20260507T06Z_MSC_RDPS_WindU_IsbL-0020_RLatLon0.09_PT073H.grib2 2026-05-07 09:02 313K
20260507T06Z_MSC_RDPS_WindU_IsbL-0030_RLatLon0.09_PT073H.grib2 2026-05-07 09:02 310K
20260507T06Z_MSC_RDPS_WindU_IsbL-0050_RLatLon0.09_PT073H.grib2 2026-05-07 09:02 338K
20260507T06Z_MSC_RDPS_WindU_IsbL-0100_RLatLon0.09_PT073H.grib2 2026-05-07 09:02 431K
20260507T06Z_MSC_RDPS_WindU_IsbL-0150_RLatLon0.09_PT073H.grib2 2026-05-07 09:02 368K
20260507T06Z_MSC_RDPS_WindU_IsbL-0175_RLatLon0.09_PT073H.grib2 2026-05-07 09:02 415K
20260507T06Z_MSC_RDPS_WindU_IsbL-0200_RLatLon0.09_PT073H.grib2 2026-05-07 09:02 428K
20260507T06Z_MSC_RDPS_WindU_IsbL-0225_RLatLon0.09_PT073H.grib2 2026-05-07 09:02 435K
20260507T06Z_MSC_RDPS_WindU_IsbL-0250_RLatLon0.09_PT073H.grib2 2026-05-07 09:02 437K
20260507T06Z_MSC_RDPS_WindU_IsbL-0275_RLatLon0.09_PT073H.grib2 2026-05-07 09:02 355K
20260507T06Z_MSC_RDPS_WindU_IsbL-0300_RLatLon0.09_PT073H.grib2 2026-05-07 09:02 452K
20260507T06Z_MSC_RDPS_WindU_IsbL-0350_RLatLon0.09_PT073H.grib2 2026-05-07 09:02 461K
20260507T06Z_MSC_RDPS_WindU_IsbL-0400_RLatLon0.09_PT073H.grib2 2026-05-07 09:02 467K
20260507T06Z_MSC_RDPS_WindU_IsbL-0450_RLatLon0.09_PT073H.grib2 2026-05-07 09:02 470K
20260507T06Z_MSC_RDPS_WindU_IsbL-0500_RLatLon0.09_PT073H.grib2 2026-05-07 09:02 473K
20260507T06Z_MSC_RDPS_WindU_IsbL-0550_RLatLon0.09_PT073H.grib2 2026-05-07 09:02 455K
20260507T06Z_MSC_RDPS_WindU_IsbL-0600_RLatLon0.09_PT073H.grib2 2026-05-07 09:02 464K
20260507T06Z_MSC_RDPS_WindU_IsbL-0650_RLatLon0.09_PT073H.grib2 2026-05-07 09:02 481K
20260507T06Z_MSC_RDPS_WindU_IsbL-0700_RLatLon0.09_PT073H.grib2 2026-05-07 09:02 504K
20260507T06Z_MSC_RDPS_WindU_IsbL-0750_RLatLon0.09_PT073H.grib2 2026-05-07 09:02 532K
20260507T06Z_MSC_RDPS_WindU_IsbL-0800_RLatLon0.09_PT073H.grib2 2026-05-07 09:02 706K
20260507T06Z_MSC_RDPS_WindU_IsbL-0850_RLatLon0.09_PT073H.grib2 2026-05-07 09:02 760K
20260507T06Z_MSC_RDPS_WindU_IsbL-0875_RLatLon0.09_PT073H.grib2 2026-05-07 09:02 777K
20260507T06Z_MSC_RDPS_WindU_IsbL-0900_RLatLon0.09_PT073H.grib2 2026-05-07 09:02 793K
20260507T06Z_MSC_RDPS_WindU_IsbL-0925_RLatLon0.09_PT073H.grib2 2026-05-07 09:02 802K
20260507T06Z_MSC_RDPS_WindU_IsbL-0950_RLatLon0.09_PT073H.grib2 2026-05-07 09:02 802K
20260507T06Z_MSC_RDPS_WindU_IsbL-0970_RLatLon0.09_PT073H.grib2 2026-05-07 09:02 797K
20260507T06Z_MSC_RDPS_WindU_IsbL-0985_RLatLon0.09_PT073H.grib2 2026-05-07 09:02 791K
20260507T06Z_MSC_RDPS_WindU_IsbL-1000_RLatLon0.09_PT073H.grib2 2026-05-07 09:02 832K
20260507T06Z_MSC_RDPS_WindU_IsbL-1015_RLatLon0.09_PT073H.grib2 2026-05-07 09:02 826K
20260507T06Z_MSC_RDPS_WindV_AGL-10m_RLatLon0.09_PT073H.grib2 2026-05-07 09:02 433K
20260507T06Z_MSC_RDPS_WindV_AGL-120m_RLatLon0.09_PT073H.grib2 2026-05-07 09:02 538K
20260507T06Z_MSC_RDPS_WindV_AGL-40m_RLatLon0.09_PT073H.grib2 2026-05-07 09:02 540K
20260507T06Z_MSC_RDPS_WindV_AGL-80m_RLatLon0.09_PT073H.grib2 2026-05-07 09:02 539K
20260507T06Z_MSC_RDPS_WindV_IsbL-0001_RLatLon0.09_PT073H.grib2 2026-05-07 09:02 245K
20260507T06Z_MSC_RDPS_WindV_IsbL-0005_RLatLon0.09_PT073H.grib2 2026-05-07 09:02 285K
20260507T06Z_MSC_RDPS_WindV_IsbL-0010_RLatLon0.09_PT073H.grib2 2026-05-07 09:02 297K
20260507T06Z_MSC_RDPS_WindV_IsbL-0020_RLatLon0.09_PT073H.grib2 2026-05-07 09:02 314K
20260507T06Z_MSC_RDPS_WindV_IsbL-0030_RLatLon0.09_PT073H.grib2 2026-05-07 09:02 311K
20260507T06Z_MSC_RDPS_WindV_IsbL-0050_RLatLon0.09_PT073H.grib2 2026-05-07 09:02 337K
20260507T06Z_MSC_RDPS_WindV_IsbL-0100_RLatLon0.09_PT073H.grib2 2026-05-07 09:02 426K
20260507T06Z_MSC_RDPS_WindV_IsbL-0150_RLatLon0.09_PT073H.grib2 2026-05-07 09:02 390K
20260507T06Z_MSC_RDPS_WindV_IsbL-0175_RLatLon0.09_PT073H.grib2 2026-05-07 09:02 414K
20260507T06Z_MSC_RDPS_WindV_IsbL-0200_RLatLon0.09_PT073H.grib2 2026-05-07 09:02 330K
20260507T06Z_MSC_RDPS_WindV_IsbL-0225_RLatLon0.09_PT073H.grib2 2026-05-07 09:02 335K
20260507T06Z_MSC_RDPS_WindV_IsbL-0250_RLatLon0.09_PT073H.grib2 2026-05-07 09:02 365K
20260507T06Z_MSC_RDPS_WindV_IsbL-0275_RLatLon0.09_PT073H.grib2 2026-05-07 09:02 380K
20260507T06Z_MSC_RDPS_WindV_IsbL-0300_RLatLon0.09_PT073H.grib2 2026-05-07 09:02 376K
20260507T06Z_MSC_RDPS_WindV_IsbL-0350_RLatLon0.09_PT073H.grib2 2026-05-07 09:02 358K
20260507T06Z_MSC_RDPS_WindV_IsbL-0400_RLatLon0.09_PT073H.grib2 2026-05-07 09:02 363K
20260507T06Z_MSC_RDPS_WindV_IsbL-0450_RLatLon0.09_PT073H.grib2 2026-05-07 09:02 469K
20260507T06Z_MSC_RDPS_WindV_IsbL-0500_RLatLon0.09_PT073H.grib2 2026-05-07 09:02 468K
20260507T06Z_MSC_RDPS_WindV_IsbL-0550_RLatLon0.09_PT073H.grib2 2026-05-07 09:02 469K
20260507T06Z_MSC_RDPS_WindV_IsbL-0600_RLatLon0.09_PT073H.grib2 2026-05-07 09:02 477K
20260507T06Z_MSC_RDPS_WindV_IsbL-0650_RLatLon0.09_PT073H.grib2 2026-05-07 09:02 492K
20260507T06Z_MSC_RDPS_WindV_IsbL-0700_RLatLon0.09_PT073H.grib2 2026-05-07 09:02 498K
20260507T06Z_MSC_RDPS_WindV_IsbL-0750_RLatLon0.09_PT073H.grib2 2026-05-07 09:02 526K
20260507T06Z_MSC_RDPS_WindV_IsbL-0800_RLatLon0.09_PT073H.grib2 2026-05-07 09:02 571K
20260507T06Z_MSC_RDPS_WindV_IsbL-0850_RLatLon0.09_PT073H.grib2 2026-05-07 09:02 622K
20260507T06Z_MSC_RDPS_WindV_IsbL-0875_RLatLon0.09_PT073H.grib2 2026-05-07 09:02 638K
20260507T06Z_MSC_RDPS_WindV_IsbL-0900_RLatLon0.09_PT073H.grib2 2026-05-07 09:02 652K
20260507T06Z_MSC_RDPS_WindV_IsbL-0925_RLatLon0.09_PT073H.grib2 2026-05-07 09:02 660K
20260507T06Z_MSC_RDPS_WindV_IsbL-0950_RLatLon0.09_PT073H.grib2 2026-05-07 09:02 802K
20260507T06Z_MSC_RDPS_WindV_IsbL-0970_RLatLon0.09_PT073H.grib2 2026-05-07 09:02 798K
20260507T06Z_MSC_RDPS_WindV_IsbL-0985_RLatLon0.09_PT073H.grib2 2026-05-07 09:02 792K
20260507T06Z_MSC_RDPS_WindV_IsbL-1000_RLatLon0.09_PT073H.grib2 2026-05-07 09:02 833K
20260507T06Z_MSC_RDPS_WindV_IsbL-1015_RLatLon0.09_PT073H.grib2 2026-05-07 09:02 827K